Location: Unspecified
(0.0000°N, 0.0000°E)
Time: 23:38:57
(UTC+00:00)

Envisat - Pass Details

Date: 14 August 2022
Orbit: 763 x 765 km, 98.2° (Epoch: 15 August)

Event Time Altitude Azimuth Distance (km) Brightness Sun altitude
Rises 05:17:01 0° 331° (NNW) 3,213 6.1 -11.6°
Maximum altitude 05:22:25 10° 283° (WNW) 2,295 4.9 -10.3°
Drops below altitude 10° 05:22:30 10° 282° (WNW) 2,295 4.9 -10.2°
Enters shadow 05:22:38 10° 280° (W) 2,297 4.9 -10.2°
